Regional Weather Roundup
Issued by NWS Upton, NY

Current Version | Previous Version | Graphics & Text | Print | Product List | Glossary Off
Versions: 1 2 3 4 5 6 7 8 9 10 11 12 13 14 15 16 17 18 19 20 21 22 23 24 25 26 27 28 29 30 31 32 33 34 35 36 37 38 39 40 41 42 43 44 45 46 47 48 49 50

000
ASUS41 KOKX 280808
RWROKX

REGIONAL WEATHER ROUNDUP
NATIONAL WEATHER SERVICE NEW YORK NY
400 AM EDT TUE JUL 28 2015

NOTE: "FAIR" INDICATES FEW OR NO CLOUDS BELOW 12,000 FEET WITH NO
SIGNIFICANT WEATHER AND/OR OBSTRUCTIONS TO VISIBILITY.

NYZ071-072-176-178-NJZ106-104-280900-
NEW YORK CITY METRO AREA


CITY           SKY/WX    TMP DP  RH WIND       PRES   REMARKS
CENTRAL PARK   CLEAR     76  67  73 W6        30.03S
LAGUARDIA APRT PTCLDY    77  69  76 W7        29.99S
KENNEDY INTL   PTCLDY    74  70  87 SW6       30.01S
NEWARK/LIBERTY PTCLDY    74  69  85 W5        30.00S
BRNX BOT. GARD   N/A     75  68  78 W2        30.00F
TETERBORO      CLEAR     74  67  78 CALM      29.99S
$$

NYZ177-179-078>081-280900-
LONG ISLAND NEW YORK

CITY           SKY/WX    TMP DP  RH WIND       PRES   REMARKS
FARMINGDALE    CLEAR     73  69  87 SW3       30.00F
ISLIP          PTCLDY    74  70  87 SW5       29.99S
SHIRLEY        PTCLDY    74  71  91 SW3       30.01F
WESTHAMPTON    CLEAR     73  71  93 SW5       30.02S
MONTAUK POINT    N/A     73  70  90 CALM      30.02S
$$

NYZ052-065-067-280900-
HUDSON VALLEY

CITY           SKY/WX    TMP DP  RH WIND       PRES   REMARKS
WHITE PLAINS   CLEAR     69  67  93 CALM      30.01S
NEWBURGH       CLEAR     68  68 100 CALM      30.02F
MONTGOMERY     CLEAR     64  63  96 SW3       30.01S
POUGHKEEPSIE   CLEAR     68  65  90 CALM      29.99F
ALBANY         PTCLDY    70  66  87 CALM      30.00S
$$

NJZ001-105-106-008-010-013-015-019>022-104-280900-
NEW JERSEY

CITY           SKY/WX    TMP DP  RH WIND       PRES   REMARKS
NEWARK/LIBERTY PTCLDY    74  69  85 W5        30.00S
TETERBORO      CLEAR     74  67  78 CALM      29.99S
CALDWELL       CLEAR     71  68  90 CALM      30.01S
MORRISTOWN     FOG       68  64  88 CALM      30.01S VSB 1/2
SOMERVILLE     PTCLDY    67  65  93 CALM      29.99S FOG
SUSSEX         MOCLDY    66  64  93 CALM      30.02S FOG
ANDOVER          N/A     66  66 100 CALM      30.03S
TRENTON        CLEAR     71  68  90 CALM      30.00F
MILLVILLE      PTCLDY    71  69  93 CALM      30.01F
ATLANTIC CITY  PTCLDY    73  71  93 S3        30.01F
WRIGHTSTOWN    CLEAR     69  69  99 CALM      29.99S
TOMS RIVER     PTCLDY    68  66  94 CALM      30.02R
BELMAR         CLEAR     72  64  78 SW3       30.01S
$$

PAZ047>061-062-071-280900-
EASTERN PENNSYLVANIA

CITY           SKY/WX    TMP DP  RH WIND       PRES   REMARKS
PHILADELPHIA   PTCLDY    76  71  85 CALM      30.01S
ALLENTOWN      CLEAR     70  68  93 CALM      30.02S FOG
SCRANTON       CLEAR     66  63  90 SE3       30.05S FOG
$$

CTZ002-004>006-009-010-012-RIZ004-006-007-MAZ004-011-015-280900-
SOUTHERN NEW ENGLAND
 IN CT

CITY           SKY/WX    TMP DP  RH WIND       PRES   REMARKS
BRADLEY INTL   CLEAR     70  67  90 S3        29.99F
HARTFORD       CLEAR     71  69  93 S3        29.99F
DANBURY        CLEAR     67  63  87 SW3       30.02F
WTRBRY/OXFORD  PTCLDY    66  61  82 CALM      30.03F
BRIDGEPORT     CLEAR     73  71  93 CALM      30.00S
MERIDEN        CLEAR     67  65  93 CALM      30.00F
NEW HAVEN      CLEAR     69  67  93 CALM      30.00F
CHESTER        CLOUDY    72  70  94 SW5       30.02F
GROTON         FOG       70  69  97 S3        30.00S VSB 1/2
WILLIMANTIC    CLOUDY    69  66  90 CALM      30.01S FOG

 IN RI

CITY           SKY/WX    TMP DP  RH WIND       PRES   REMARKS
PROVIDENCE     PTCLDY    69  68  96 S3        30.01S FOG
BLOCK ISLAND   PTCLDY    72  72 100 SW9       30.02S
WESTERLY       CLEAR     70  69  97 CALM      30.01F

 IN MA

CITY           SKY/WX    TMP DP  RH WIND       PRES   REMARKS
BOSTON         PTCLDY    70  68  93 S6        29.98F
WORCESTER      CLEAR     67  65  93 W10       30.01F
WESTFIELD      CLOUDY    64  63  96 CALM      29.99F FOG
PROVINCETOWN   PTCLDY    70  64  83 S9        30.01S
NANTUCKET      CLEAR     69  67  93 SW7       30.02F
$$

ANZ330-335-338-340-345-350-353-355-280900-
COASTAL MARINE OBSERVATIONS


STATION/POSITION TIME  SKY/WX   TEMP    WIND        PRES    VSBY  WAVE
                                AIR SEA DIR/SP/G                  HT/PER
                 (UTC)          (F)     (DEG/KT/KT) (MB)    (MI)  (FT/S)
NY HARB ENTRANCE 0750            74 75  220/  8/ 10 1015.5          2/11
4S FIRE IS       NOT AVBL
20S FIRE ISLAND  0750            74 71  200/  6/  6 1015.9          2/11
GREAT SOUTH BAY  0700            75 79  230/  8/ 10   N/A
23SW MTP         0750            74 74  220/  8/ 10 1015.8          2/10
HUDSON CANYON    NOT AVBL
KINGS POINT      0700            75 71  190/  3/  4 1015.1
CENTRAL LI SOUND NOT AVBL
EASTERN LI SOUND 0700            71 69  230/  4/  4   N/A
ROBBINS REEF     0700            74     260/  7/  9 1014.8
$$


>>>>>>>>>>>>>>>>>>>>>>>>>>>> KEY <<<<<<<<<<<<<<<<<<<<<<<<<<<
>                                                          <
>     SKY/WX - SKY CONDITION/PRESENT WEATHER               <
>     TMP    - TEMPERATURE IN FAHRENHEIT                   <
>     DP     - DEWPOINT IN FAHRENHEIT                      <
>     RH     - RELATIVE HUMIDITY IN PERCENT                <
>     WIND   - DIRECTION AND SPEED IN MPH                  <
>     PRES   - MEAN SEA LEVEL PRESSURE IN INCHES OF HG     <
>     WCI    - WIND CHILL INDEX                            <
>     VSB    - VISIBILITY IN MILES                         <
>     HX     - HEAT INDEX                                  <
>     TC     - TEMPERATURE IN CELSIUS                      <
>     VRB    - VARIABLE WIND DIRECTION                     <
>                                                          <
>>>>>>>>>>>>>>>>>>>>>>>>>>>> KEY <<<<<<<<<<<<<<<<<<<<<<<<<<<




USA.gov is the U.S. government's official web portal to all federal, state and local government web resources and services.